STARLINK-32133, 60333

Orbit data source: Space-Track

STARLINK-32133, 60333 is a payload satellite owned by SpaceX/Seattle (US) in LEO that was launched on Fri, 02 Aug 2024 UTC via an FALCON 9 launch vehicle from the Air Force Eastern Test Range (AFETR). Payload-class satellites include a variety of spacecraft equipped with specific instruments for various scientific and technological missions. These include communications satellites like Starlink; space stations such as the ISS; scientific satellites like the Hubble; Earth observation satellites from companies like Planet Labs, Umbra, and HawkEye 360; GPS; miniature CubeSats for education and research; and military/defense satellites.

Loading next visibility...
Identifier
60333, 2024-136E
Orbit
LEO
Last TLE update
22 hours ago
Origin
Manufacturer
SpaceX/Seattle
Mission
Operational Commercial Communications
Bus & Motor
STARLINK V2M, Unknown motor
Mass
730 kg wet, ~700 kg dry
Launch date (UTC)
2024-08-02 (11 months ago)
Launch vehicle
FALCON 9
Launch site
Air Force Eastern Test Range (AFETR)
Object type
Payload
Rocket body
Debris
Shape & HBR
Box + 2 Pan, 29 m
Radar Cross Section
33.884 m², Large (>1 m²)

Expand to show TLE details & history

TLE from 22 hours ago
0 STARLINK-32133
1 60333U 24136E   25183.35397283 -.00000009  00000-0  11821-4 0  9997
2 60333  53.1592 158.6959 0001198  87.4893 272.6245 15.30195943 51333
Epoch: 2025-07-02T08:29Z
TLE epoch observation values (Epoch: 2025-07-02T08:29:43.252Z)
Latitude
-0.00001°
Longitude
110.62939°
Altitude
476.089 km
Speed
7.629 km/s
True Right ascension
10h 34m 47s
True Declination
0° 00' 00"
Sunlit
Object was in daylight at epoch
Visualization orbit readout
Latitude
35.33959°
Longitude
138.23319°
Altitude
477.281 km
Speed
7.632 km/s
Apparent Right ascension
09h 40m 00s
Apparent Declination
0° 58' 24"
Sunlit
Object is in daylight
Visualization observer readout
Local Sidereal Time
18:24:11
Azimuth
298.432° NW
Elevation
-30.963°
Doppler factor
1
Orbital elements
Apogee altitude
476.305 km
Perigee altitude
474.663 km
Semi-major axis
6,853.621 km
Eccentricity
0.00012
Inclination
53.1592°
RAAN
158.6959°
Arg. of periapsis
87.4893°
True anomaly
Unknown
Mean anomaly
272.6245°
Eccentric anomaly
Unknown
Mean motion
3.82528 °/min
Orbital period
94.11 mins
BSTAR
0.000011821
Loading maneuver chart data...
Loading SW <> Apogee altitude chart data...
Loading historical data...
Loading historical data...
Loading historical data...
Loading historical data...
Loading historical data...
Loading historical data...
Loading historical data...

STARLINK-32133 Visibility forecast

Observer location: undefined°, undefined°

Span
Click to sort rows by Start time (UTC) header in descending order
Start Az.
Max El. time (UTC)
Max El. Az.
Max El.
End time (UTC)
End Az.
5 mins2025-07-03 06:54:28.952Z332.713° NNW2025-07-03 06:57:28.952Z42.522° NE25.863°2025-07-03 06:59:28.952Z84.628° E
4 mins2025-07-03 08:33:28.952Z275.346° WNW2025-07-03 08:35:28.952Z209.062° SW29.757°2025-07-03 08:37:28.952Z166.38° S
4 mins2025-07-03 23:51:28.952Z164.893° S2025-07-03 23:52:28.952Z141.614° SSE22.253°2025-07-03 23:55:28.952Z78.65° E
5 mins2025-07-04 01:28:28.952Z266.248° W2025-07-04 01:30:28.952Z319.155° NNW32.255°2025-07-04 01:33:28.952Z33.573° NE
5 mins2025-07-04 06:25:28.952Z340.617° N2025-07-04 06:27:28.952Z26.147° NE24.243°2025-07-04 06:30:28.952Z86.166° E
|